DW8016 Weather Reports


Display with metric or nautical units.
time (UTC)temp
F
wind
direction
speed
MPH
gust
MPH
rain 1hr
in
rain 24hr
in
rain mn
in
humidity
%
barometer
mb
20260509185617 70 286 1.0 4.0 0.00 0.00 0.00 62 1007.9
20260509183414 69 188 4.0 12.0 0.00 0.00 0.00 64 1008.2
20260509182346 70 186 3.0 8.0 0.00 0.00 0.00 56 1008.2
20260509181404 70 205 3.0 11.0 0.00 0.00 0.00 54 1008.5
20260509180333 71 275 2.0 11.0 0.00 0.00 0.00 52 1008.6
20260509175324 72 269 2.0 9.0 0.00 0.00 0.00 52 1008.7
20260509174305 72 258 2.0 6.0 0.00 0.00 0.00 52 1008.8
20260509172154 73 253 1.0 8.0 0.00 0.00 0.00 52 1008.8
20260509171146 72 213 2.0 8.0 0.00 0.00 0.00 54 1008.9
20260509170139 72 203 1.0 5.0 0.00 0.00 0.00 54 1009.0
20260509165127 71 209 0.0 6.0 0.00 0.00 0.00 54 1009.0
20260509164136 70 190 2.0 7.0 0.00 0.00 0.00 55 1009.2
20260509163115 71 222 2.0 7.0 0.00 0.00 0.00 54 1009.2
20260509162129 71 146 2.0 10.0 0.00 0.00 0.00 54 1009.2
20260509160031 71 91 4.0 10.0 0.00 0.00 0.00 53 1009.2
20260509155006 71 218 2.0 7.0 0.00 0.00 0.00 53 1009.5
20260509153935 72 302 3.0 9.0 0.00 0.00 0.00 51 1009.5
20260509152958 72 198 4.0 9.0 0.00 0.00 0.00 51 1009.6
20260509150759 69 288 3.0 7.0 0.00 0.00 0.00 55 1009.7
20260509145729 68 221 4.0 9.0 0.00 0.00 0.00 58 1009.9
20260509144728 66 243 2.0 9.0 0.00 0.00 0.00 60 1010.0
20260509141425 63 200 1.0 6.0 0.00 0.00 0.00 64 1010.4
20260509140358 62 189 1.0 5.0 0.00 0.00 0.00 65 1010.3
20260509134222 61 182 2.0 8.0 0.00 0.00 0.00 65 1010.4
20260509133237 61 202 1.0 7.0 0.00 0.00 0.00 65 1010.4
20260509132237 61 196 0.0 8.0 0.00 0.00 0.00 65 1010.5
20260509131209 61 215 2.0 9.0 0.00 0.00 0.00 65 1010.5
20260509130201 60 168 3.0 9.0 0.00 0.00 0.00 65 1010.3
20260509125127 60 184 3.0 9.0 0.00 0.00 0.00 65 1010.3
20260509124119 60 205 4.0 10.0 0.00 0.00 0.00 64 1010.2
20260509123046 60 211 4.0 10.0 0.00 0.00 0.00 63 1010.2
20260509122101 60 201 3.0 11.0 0.00 0.00 0.00 64 1010.2
20260509121111 60 209 4.0 13.0 0.00 0.00 0.00 63 1010.3
20260509114950 60 215 4.0 12.0 0.00 0.00 0.00 61 1010.2
20260509114000 60 218 4.0 12.0 0.00 0.00 0.00 61 1010.2
20260509111757 60 187 4.0 11.0 0.00 0.00 0.00 60 1010.0
20260509110725 59 173 4.0 11.0 0.00 0.00 0.00 60 1010.1
20260509105710 59 173 3.0 10.0 0.00 0.00 0.00 57 1010.0
20260509104728 59 224 3.0 10.0 0.00 0.00 0.00 56 1010.0
20260509103724 59 185 4.0 9.0 0.00 0.00 0.00 55 1009.9
20260509100451 60 184 2.0 6.0 0.00 0.00 0.00 52 1009.7
20260509095510 60 211 2.0 6.0 0.00 0.00 0.00 52 1009.6
20260509094437 60 184 1.0 7.0 0.00 0.00 0.00 52 1009.6
20260509093410 60 180 1.0 7.0 0.00 0.00 0.00 52 1009.7
20260509092342 60 256 2.0 9.0 0.00 0.00 0.00 52 1009.8
20260509091335 60 242 2.0 9.0 0.00 0.00 0.00 52 1009.8
20260509085139 60 254 1.0 8.0 0.00 0.00 0.00 52 1009.9
20260509084137 60 251 3.0 9.0 0.00 0.00 0.00 52 1010.0
20260509082022 60 192 2.0 12.0 0.00 0.00 0.00 52 1010.2
20260509081024 60 255 4.0 12.0 0.00 0.00 0.00 53 1010.3
20260509080026 60 224 4.0 12.0 0.00 0.00 0.00 54 1010.4
20260509075019 60 171 3.0 9.0 0.00 0.00 0.00 54 1010.5
20260509074004 60 180 4.0 12.0 0.00 0.00 0.00 55 1010.5
20260509073022 60 261 5.0 14.0 0.00 0.00 0.00 54 1010.5
20260509072044 60 169 5.0 14.0 0.00 0.00 0.00 54 1010.5
20260509071035 60 155 3.0 10.0 0.00 0.00 0.00 54 1010.6
20260509070058 60 198 4.0 10.0 0.00 0.00 0.00 53 1010.5
20260509065029 60 180 5.0 9.0 0.00 0.00 0.00 53 1010.7
20260509064043 60 213 4.0 14.0 0.00 0.00 0.00 52 1010.7
20260509063042 60 242 4.0 14.0 0.00 0.00 0.00 52 1010.8
20260509062018 60 138 3.0 8.0 0.00 0.00 0.00 52 1010.9
20260509061006 60 232 3.0 10.0 0.00 0.00 0.00 52 1010.9
20260509060028 61 160 3.0 10.0 0.00 0.00 0.00 52 1010.9
20260509054959 61 177 2.0 8.0 0.00 0.00 0.00 51 1010.9
20260509053946 61 253 3.0 8.0 0.00 0.00 0.00 51 1011.0
20260509051822 60 217 3.0 8.0 0.00 0.00 0.00 52 1011.0
20260509050811 60 198 2.0 9.0 0.00 0.00 0.00 52 1011.0
20260509045816 60 182 2.0 9.0 0.00 0.00 0.00 53 1010.9
20260509044743 60 196 1.0 6.0 0.00 0.00 0.00 55 1011.0
20260509043736 60 136 2.0 7.0 0.00 0.00 0.00 54 1011.0
20260509042716 60 166 1.0 7.0 0.00 0.00 0.00 54 1011.1
20260509041718 61 153 1.0 7.0 0.00 0.00 0.00 54 1011.1
20260509040715 61 163 2.0 8.0 0.00 0.00 0.00 52 1011.0
20260509035713 61 189 3.0 8.0 0.00 0.00 0.00 51 1011.1
20260509034715 61 189 2.0 9.0 0.00 0.00 0.00 51 1011.2
20260509032607 62 190 2.0 8.0 0.00 0.00 0.00 49 1011.1
20260509031624 62 189 2.0 7.0 0.00 0.00 0.00 49 1011.3
20260509030644 63 199 2.0 7.0 0.00 0.00 0.00 48 1011.4
20260509025657 63 147 2.0 6.0 0.00 0.00 0.00 48 1011.4
20260509024631 63 175 2.0 6.0 0.00 0.00 0.00 47 1011.4
20260509022537 64 184 1.0 5.0 0.00 0.00 0.00 46 1011.4
20260509021530 64 175 1.0 5.0 0.00 0.00 0.00 46 1011.3
20260509020502 64 175 1.0 5.0 0.00 0.00 0.00 45 1011.3
20260509014401 65 167 1.0 7.0 0.00 0.00 0.00 45 1011.1
20260509013351 65 188 2.0 7.0 0.00 0.00 0.00 44 1011.1
20260509012339 65 153 2.0 7.0 0.00 0.00 0.00 43 1011.2
20260509011306 66 188 2.0 7.0 0.00 0.00 0.00 43 1011.1
20260509010240 66 167 1.0 8.0 0.00 0.00 0.00 42 1011.0
20260509005206 67 205 3.0 8.0 0.00 0.00 0.00 41 1011.0
20260509004202 67 194 2.0 5.0 0.00 0.00 0.00 40 1010.9
20260509003200 68 217 2.0 8.0 0.00 0.00 0.00 39 1010.8
20260509002221 68 254 3.0 8.0 0.00 0.00 0.00 38 1010.8
20260509000147 69 258 2.0 8.0 0.00 0.00 0.00 37 1010.5
20260508235120 69 213 3.0 8.0 0.00 0.00 0.00 37 1010.4
20260508234128 69 172 2.0 7.0 0.00 0.00 0.00 36 1010.4
20260508233104 69 229 2.0 10.0 0.00 0.00 0.00 37 1010.4
20260508232127 69 188 4.0 10.0 0.00 0.00 0.00 36 1010.3
20260508231113 70 209 1.0 6.0 0.00 0.00 0.00 36 1010.3
20260508230048 70 205 4.0 10.0 0.00 0.00 0.00 35 1010.2
20260508225036 70 159 2.0 10.0 0.00 0.00 0.00 34 1010.0
20260508224016 71 190 2.0 6.0 0.00 0.00 0.00 31 1010.1
20260508222952 71 182 2.0 6.0 0.00 0.00 0.00 32 1010.0
20260508221958 71 244 2.0 8.0 0.00 0.00 0.00 32 1010.2
20260508220925 71 164 2.0 8.0 0.00 0.00 0.00 30 1010.2
20260508215934 72 275 1.0 0.0 0.00 0.00 0.00 30 1010.2
20260508211528 75 325 2.0 7.0 0.00 0.00 0.00 28 1010.2
20260508210506 74 190 2.0 8.0 0.00 0.00 0.00 28 1010.2
20260508205528 75 198 3.0 12.0 0.00 0.00 0.00 28 1010.2
20260508204536 75 221 4.0 12.0 0.00 0.00 0.00 29 1010.3
20260508203556 76 327 2.0 10.0 0.00 0.00 0.00 27 1010.4
20260508202619 75 264 2.0 8.0 0.00 0.00 0.00 28 1010.4
20260508201545 75 279 3.0 11.0 0.00 0.00 0.00 26 1010.5
20260508200545 75 335 4.0 13.0 0.00 0.00 0.00 27 1010.7
20260508195520 74 232 4.0 13.0 0.00 0.00 0.00 28 1010.7
20260508194508 74 205 5.0 11.0 0.00 0.00 0.00 27 1011.0
20260508193528 74 246 3.0 12.0 0.00 0.00 0.00 28 1011.0
20260508192542 74 211 4.0 12.0 0.00 0.00 0.00 27 1011.3
20260508191520 76 293 2.0 7.0 0.00 0.00 0.00 27 1011.4
20260508190522 76 211 2.0 10.0 0.00 0.00 0.00 27 1011.5